| time (UTC) | temp F | wind direction | speed knots | gust knots | rain 1hr in | rain 24hr in | rain mn in | humidity % | barometer mb |
| 20260505011607 | 68 | 161 | 4.3 | 10.4 | 0.00 | 0.00 | 0.00 | 56 | 1015.2 |
| 20260505011103 | 68 | 148 | 3.5 | 8.7 | 0.00 | 0.00 | 0.00 | 54 | 1015.1 |
| 20260505010558 | 68 | 188 | 3.5 | 10.4 | 0.00 | 0.00 | 0.00 | 55 | 1015.1 |
| 20260505010100 | 69 | 184 | 4.3 | 10.4 | 0.00 | 0.00 | 0.00 | 54 | 1015.0 |
| 20260505005558 | 68 | 139 | 6.1 | 10.4 | 0.00 | 0.00 | 0.00 | 54 | 1015.0 |
| 20260505005102 | 68 | 148 | 3.5 | 7.8 | 0.00 | 0.00 | 0.00 | 53 | 1014.9 |
| 20260505004558 | 68 | 199 | 4.3 | 7.8 | 0.00 | 0.00 | 0.00 | 54 | 1014.9 |
| 20260505004057 | 68 | 186 | 4.3 | 10.4 | 0.00 | 0.00 | 0.00 | 54 | 1014.8 |
| 20260505003557 | 68 | 182 | 3.5 | 10.4 | 0.00 | 0.00 | 0.00 | 54 | 1014.9 |
| 20260505003057 | 68 | 172 | 4.3 | 7.8 | 0.00 | 0.00 | 0.00 | 54 | 1015.0 |
| 20260505002557 | 69 | 185 | 2.6 | 8.7 | 0.00 | 0.00 | 0.00 | 54 | 1015.0 |
| 20260505002057 | 69 | 173 | 3.5 | 8.7 | 0.00 | 0.00 | 0.00 | 54 | 1015.0 |
| 20260505001558 | 69 | 149 | 3.5 | 11.3 | 0.00 | 0.00 | 0.00 | 54 | 1015.1 |
| 20260505001057 | 69 | 170 | 6.1 | 11.3 | 0.00 | 0.00 | 0.00 | 53 | 1014.9 |
| 20260505000556 | 69 | 200 | 3.5 | 11.3 | 0.00 | 0.00 | 0.00 | 55 | 1015.0 |
| 20260505000115 | 69 | 139 | 6.1 | 11.3 | 0.00 | 0.00 | 0.00 | 54 | 1015.1 |
| 20260504235559 | 69 | 198 | 3.5 | 9.6 | 0.00 | 0.00 | 0.00 | 54 | 1015.1 |
| 20260504235058 | 70 | 190 | 4.3 | 9.6 | 0.00 | 0.00 | 0.00 | 53 | 1015.0 |
| 20260504234555 | 70 | 184 | 5.2 | 13.0 | 0.00 | 0.00 | 0.00 | 52 | 1014.9 |
| 20260504234055 | 70 | 188 | 4.3 | 10.4 | 0.00 | 0.00 | 0.00 | 51 | 1015.0 |
| 20260504233555 | 71 | 169 | 5.2 | 10.4 | 0.00 | 0.00 | 0.00 | 50 | 1015.0 |
| 20260504233108 | 71 | 175 | 4.3 | 10.4 | 0.00 | 0.00 | 0.00 | 49 | 1014.9 |
| 20260504232555 | 71 | 177 | 5.2 | 10.4 | 0.00 | 0.00 | 0.00 | 48 | 1014.9 |
| 20260504232054 | 72 | 200 | 6.1 | 11.3 | 0.00 | 0.00 | 0.00 | 47 | 1014.7 |
| 20260504231554 | 72 | 165 | 6.1 | 11.3 | 0.00 | 0.00 | 0.00 | 47 | 1014.7 |
| 20260504231055 | 72 | 172 | 5.2 | 11.3 | 0.00 | 0.00 | 0.00 | 47 | 1014.7 |
| 20260504230554 | 72 | 244 | 6.1 | 13.9 | 0.00 | 0.00 | 0.00 | 45 | 1014.7 |
| 20260504230054 | 72 | 146 | 6.1 | 13.9 | 0.00 | 0.00 | 0.00 | 45 | 1014.8 |
| 20260504225554 | 72 | 202 | 5.2 | 17.4 | 0.00 | 0.00 | 0.00 | 45 | 1014.9 |
| 20260504225053 | 72 | 186 | 6.1 | 17.4 | 0.00 | 0.00 | 0.00 | 45 | 1014.8 |
| 20260504224601 | 72 | 148 | 6.1 | 12.2 | 0.00 | 0.00 | 0.00 | 45 | 1014.8 |
| 20260504224052 | 72 | 186 | 7.0 | 14.8 | 0.00 | 0.00 | 0.00 | 44 | 1014.8 |
| 20260504223552 | 73 | 164 | 7.8 | 15.6 | 0.00 | 0.00 | 0.00 | 45 | 1014.8 |
| 20260504223117 | 73 | 163 | 8.7 | 13.9 | 0.00 | 0.00 | 0.00 | 44 | 1014.7 |
| 20260504222552 | 73 | 201 | 7.0 | 13.0 | 0.00 | 0.00 | 0.00 | 44 | 1014.6 |
| 20260504222051 | 73 | 205 | 7.8 | 16.5 | 0.00 | 0.00 | 0.00 | 45 | 1014.7 |
| 20260504221552 | 73 | 177 | 8.7 | 16.5 | 0.00 | 0.00 | 0.00 | 45 | 1014.6 |
| 20260504221053 | 73 | 173 | 7.0 | 14.8 | 0.00 | 0.00 | 0.00 | 45 | 1014.8 |
| 20260504220550 | 73 | 184 | 7.8 | 14.8 | 0.00 | 0.00 | 0.00 | 45 | 1014.7 |
| 20260504220050 | 73 | 207 | 5.2 | 13.9 | 0.00 | 0.00 | 0.00 | 44 | 1014.7 |
| 20260504215550 | 73 | 211 | 7.8 | 13.9 | 0.00 | 0.00 | 0.00 | 44 | 1014.7 |
| 20260504215049 | 74 | 190 | 8.7 | 13.9 | 0.00 | 0.00 | 0.00 | 42 | 1014.8 |
| 20260504214551 | 74 | 177 | 6.1 | 13.9 | 0.00 | 0.00 | 0.00 | 43 | 1014.8 |
| 20260504214050 | 74 | 172 | 7.0 | 12.2 | 0.00 | 0.00 | 0.00 | 42 | 1014.7 |
| 20260504213548 | 73 | 204 | 6.1 | 14.8 | 0.00 | 0.00 | 0.00 | 45 | 1014.9 |
| 20260504213055 | 73 | 195 | 9.6 | 14.8 | 0.00 | 0.00 | 0.00 | 43 | 1014.9 |
| 20260504212545 | 73 | 214 | 7.8 | 14.8 | 0.00 | 0.00 | 0.00 | 45 | 1015.0 |
| 20260504212047 | 72 | 181 | 7.8 | 14.8 | 0.00 | 0.00 | 0.00 | 46 | 1015.0 |
| 20260504211544 | 71 | 189 | 10.4 | 14.8 | 0.00 | 0.00 | 0.00 | 50 | 1015.0 |
| 20260504211044 | 72 | 188 | 8.7 | 14.8 | 0.00 | 0.00 | 0.00 | 48 | 1015.0 |
| 20260504210542 | 72 | 193 | 8.7 | 14.8 | 0.00 | 0.00 | 0.00 | 48 | 1015.0 |
| 20260504210043 | 72 | 203 | 10.4 | 14.8 | 0.00 | 0.00 | 0.00 | 47 | 1015.0 |
| 20260504205542 | 72 | 207 | 8.7 | 14.8 | 0.00 | 0.00 | 0.00 | 44 | 1015.0 |
| 20260504205045 | 72 | 165 | 8.7 | 14.8 | 0.00 | 0.00 | 0.00 | 45 | 1015.1 |
| 20260504204546 | 72 | 193 | 7.8 | 13.9 | 0.00 | 0.00 | 0.00 | 47 | 1015.1 |
| 20260504204039 | 72 | 193 | 7.8 | 13.9 | 0.00 | 0.00 | 0.00 | 46 | 1015.1 |
| 20260504203539 | 71 | 204 | 7.8 | 13.9 | 0.00 | 0.00 | 0.00 | 45 | 1015.1 |
| 20260504203046 | 71 | 196 | 7.0 | 14.8 | 0.00 | 0.00 | 0.00 | 45 | 1015.1 |
| 20260504202538 | 71 | 199 | 8.7 | 14.8 | 0.00 | 0.00 | 0.00 | 46 | 1015.3 |
| 20260504202041 | 71 | 201 | 7.8 | 13.0 | 0.00 | 0.00 | 0.00 | 44 | 1015.4 |
| 20260504201537 | 71 | 195 | 7.8 | 13.0 | 0.00 | 0.00 | 0.00 | 46 | 1015.4 |
| 20260504201035 | 71 | 175 | 7.8 | 12.2 | 0.00 | 0.00 | 0.00 | 45 | 1015.4 |
| 20260504200534 | 71 | 212 | 7.8 | 12.2 | 0.00 | 0.00 | 0.00 | 44 | 1015.5 |
| 20260504200034 | 71 | 188 | 8.7 | 12.2 | 0.00 | 0.00 | 0.00 | 46 | 1015.5 |
| 20260504195531 | 70 | 202 | 7.8 | 13.0 | 0.00 | 0.00 | 0.00 | 46 | 1015.6 |
| 20260504195032 | 70 | 200 | 8.7 | 13.0 | 0.00 | 0.00 | 0.00 | 49 | 1015.6 |
| 20260504194531 | 70 | 164 | 7.8 | 12.2 | 0.00 | 0.00 | 0.00 | 45 | 1015.7 |
| 20260504194030 | 70 | 202 | 8.7 | 11.3 | 0.00 | 0.00 | 0.00 | 47 | 1015.8 |
| 20260504193530 | 70 | 174 | 7.0 | 13.0 | 0.00 | 0.00 | 0.00 | 45 | 1015.8 |
| 20260504193029 | 70 | 186 | 7.0 | 13.0 | 0.00 | 0.00 | 0.00 | 46 | 1016.0 |
| 20260504192527 | 69 | 195 | 7.8 | 12.2 | 0.00 | 0.00 | 0.00 | 49 | 1016.0 |
| 20260504192027 | 69 | 191 | 9.6 | 12.2 | 0.00 | 0.00 | 0.00 | 53 | 1016.1 |
| 20260504191526 | 69 | 202 | 8.7 | 13.0 | 0.00 | 0.00 | 0.00 | 46 | 1016.3 |
| 20260504191025 | 69 | 192 | 7.8 | 13.0 | 0.00 | 0.00 | 0.00 | 47 | 1016.4 |
| 20260504190524 | 69 | 193 | 7.8 | 13.0 | 0.00 | 0.00 | 0.00 | 49 | 1016.4 |
| 20260504190023 | 69 | 202 | 7.8 | 13.0 | 0.00 | 0.00 | 0.00 | 49 | 1016.5 |
| 20260504185521 | 69 | 176 | 9.6 | 14.8 | 0.00 | 0.00 | 0.00 | 48 | 1016.6 |
| 20260504185021 | 69 | 199 | 8.7 | 14.8 | 0.00 | 0.00 | 0.00 | 46 | 1016.6 |
| 20260504184519 | 68 | 203 | 8.7 | 13.0 | 0.00 | 0.00 | 0.00 | 48 | 1016.6 |
| 20260504184019 | 68 | 209 | 8.7 | 15.6 | 0.00 | 0.00 | 0.00 | 48 | 1016.7 |
| 20260504183518 | 68 | 193 | 8.7 | 15.6 | 0.00 | 0.00 | 0.00 | 47 | 1016.8 |
| 20260504183018 | 68 | 198 | 10.4 | 13.9 | 0.00 | 0.00 | 0.00 | 46 | 1016.9 |
| 20260504182517 | 68 | 184 | 7.8 | 13.9 | 0.00 | 0.00 | 0.00 | 45 | 1016.9 |
| 20260504182016 | 68 | 208 | 6.1 | 14.8 | 0.00 | 0.00 | 0.00 | 45 | 1017.0 |
| 20260504181516 | 68 | 195 | 8.7 | 13.9 | 0.00 | 0.00 | 0.00 | 46 | 1017.0 |
| 20260504181015 | 67 | 214 | 9.6 | 13.0 | 0.00 | 0.00 | 0.00 | 47 | 1017.0 |
| 20260504180514 | 67 | 190 | 9.6 | 13.0 | 0.00 | 0.00 | 0.00 | 46 | 1017.1 |
| 20260504180016 | 67 | 157 | 7.8 | 13.9 | 0.00 | 0.00 | 0.00 | 46 | 1017.2 |
| 20260504175511 | 67 | 197 | 7.8 | 13.9 | 0.00 | 0.00 | 0.00 | 46 | 1017.3 |
| 20260504175011 | 67 | 173 | 7.0 | 13.0 | 0.00 | 0.00 | 0.00 | 46 | 1017.3 |
| 20260504174509 | 66 | 199 | 9.6 | 12.2 | 0.00 | 0.00 | 0.00 | 48 | 1017.4 |
| 20260504174008 | 66 | 207 | 9.6 | 12.2 | 0.00 | 0.00 | 0.00 | 48 | 1017.5 |
| 20260504173508 | 66 | 191 | 8.7 | 10.4 | 0.00 | 0.00 | 0.00 | 49 | 1017.5 |
| 20260504173006 | 66 | 205 | 7.0 | 10.4 | 0.00 | 0.00 | 0.00 | 51 | 1017.4 |
| 20260504172505 | 65 | 201 | 6.1 | 8.7 | 0.00 | 0.00 | 0.00 | 51 | 1017.3 |
| 20260504172004 | 65 | 210 | 6.1 | 8.7 | 0.00 | 0.00 | 0.00 | 54 | 1017.5 |
| 20260504171504 | 65 | 208 | 7.0 | 7.8 | 0.00 | 0.00 | 0.00 | 51 | 1017.5 |
| 20260504171003 | 65 | 209 | 6.1 | 9.6 | 0.00 | 0.00 | 0.00 | 48 | 1017.5 |
| 20260504170503 | 65 | 198 | 6.1 | 9.6 | 0.00 | 0.00 | 0.00 | 50 | 1017.5 |
| 20260504151038 | 58 | 212 | 6.1 | 7.8 | 0.00 | 0.00 | 0.00 | 71 | 1019.2 |
| 20260504150534 | 58 | 193 | 4.3 | 7.0 | 0.00 | 0.00 | 0.00 | 71 | 1019.2 |
| 20260504141025 | 57 | 225 | 7.8 | 9.6 | 0.00 | 0.00 | 0.00 | 67 | 1019.3 |
| 20260504140524 | 57 | 220 | 8.7 | 9.6 | 0.00 | 0.00 | 0.00 | 67 | 1019.2 |
| 20260504130517 | 57 | 174 | 7.8 | 11.3 | 0.00 | 0.00 | 0.00 | 69 | 1019.6 |
| 20260504110508 | 56 | 203 | 11.3 | 16.5 | 0.00 | 0.00 | 0.00 | 73 | 1020.1 |
| 20260504100604 | 56 | 205 | 12.2 | 15.6 | 0.00 | 0.00 | 0.00 | 71 | 1020.0 |
| 20260504100107 | 57 | 214 | 9.6 | 13.9 | 0.00 | 0.00 | 0.00 | 75 | 1020.2 |
| 20260504090104 | 57 | 212 | 7.8 | 13.0 | 0.00 | 0.00 | 0.00 | 72 | 1020.0 |
| 20260504081550 | 57 | 198 | 7.0 | 14.8 | 0.00 | 0.00 | 0.00 | 77 | 1020.0 |
| 20260504081049 | 57 | 160 | 6.1 | 13.9 | 0.00 | 0.00 | 0.00 | 78 | 1019.9 |
| 20260504080548 | 57 | 193 | 7.0 | 10.4 | 0.00 | 0.00 | 0.00 | 79 | 1019.9 |
| 20260504050525 | 54 | 122 | 0.0 | 5.2 | 0.00 | 0.00 | 0.00 | 74 | 1020.2 |
| 20260504050025 | 55 | 108 | 0.9 | 7.0 | 0.00 | 0.00 | 0.00 | 72 | 1020.3 |
| 20260504045524 | 56 | 146 | 2.6 | 9.6 | 0.00 | 0.00 | 0.00 | 72 | 1020.4 |
| 20260504045024 | 56 | 212 | 5.2 | 10.4 | 0.00 | 0.00 | 0.00 | 72 | 1020.3 |
| 20260504044534 | 57 | 206 | 8.7 | 10.4 | 0.00 | 0.00 | 0.00 | 72 | 1020.3 |
| 20260504044022 | 57 | 173 | 5.2 | 11.3 | 0.00 | 0.00 | 0.00 | 72 | 1020.4 |
| 20260504043521 | 56 | 223 | 7.8 | 11.3 | 0.00 | 0.00 | 0.00 | 72 | 1020.4 |
| 20260504043023 | 55 | 214 | 5.2 | 8.7 | 0.00 | 0.00 | 0.00 | 76 | 1020.4 |
| 20260504042518 | 55 | 203 | 3.5 | 7.0 | 0.00 | 0.00 | 0.00 | 75 | 1020.3 |
| 20260504042019 | 55 | 200 | 3.5 | 7.0 | 0.00 | 0.00 | 0.00 | 75 | 1020.4 |
| 20260504041517 | 55 | 156 | 3.5 | 7.0 | 0.00 | 0.00 | 0.00 | 73 | 1020.4 |
| 20260504041016 | 55 | 152 | 2.6 | 7.0 | 0.00 | 0.00 | 0.00 | 73 | 1020.4 |
| 20260504040519 | 54 | 188 | 4.3 | 7.0 | 0.00 | 0.00 | 0.00 | 73 | 1020.3 |
| 20260504040013 | 54 | 205 | 2.6 | 6.1 | 0.00 | 0.00 | 0.00 | 73 | 1020.3 |
| 20260504035513 | 53 | 134 | 1.7 | 6.1 | 0.00 | 0.00 | 0.00 | 73 | 1020.3 |
| 20260504035012 | 53 | 198 | 1.7 | 5.2 | 0.00 | 0.00 | 0.00 | 74 | 1020.2 |
| 20260504034514 | 53 | 193 | 0.9 | 4.3 | 0.00 | 0.00 | 0.00 | 73 | 1020.2 |
| 20260504034012 | 54 | 148 | 1.7 | 4.3 | 0.00 | 0.00 | 0.00 | 74 | 1020.1 |
| 20260504033512 | 53 | 113 | 0.9 | 3.5 | 0.00 | 0.00 | 0.00 | 73 | 1020.1 |
| 20260504033012 | 53 | 136 | 0.9 | 2.6 | 0.00 | 0.00 | 0.00 | 74 | 1020.1 |
| 20260504032512 | 52 | 181 | 0.0 | 1.7 | 0.00 | 0.00 | 0.00 | 75 | 1020.0 |
| 20260504032014 | 53 | 100 | 0.0 | 1.7 | 0.00 | 0.00 | 0.00 | 75 | 1019.9 |
| 20260504031512 | 53 | 99 | 0.0 | 3.5 | 0.00 | 0.00 | 0.00 | 74 | 1019.9 |
| 20260504031012 | 53 | 134 | 0.0 | 3.5 | 0.00 | 0.00 | 0.00 | 73 | 1019.9 |
| 20260504030510 | 53 | 121 | 0.0 | 2.6 | 0.00 | 0.00 | 0.00 | 73 | 1019.8 |
| 20260504030010 | 53 | 91 | 0.0 | 3.5 | 0.00 | 0.00 | 0.00 | 72 | 1019.8 |
| 20260504025510 | 53 | 154 | 0.9 | 3.5 | 0.00 | 0.00 | 0.00 | 72 | 1019.9 |
| 20260504025013 | 53 | 116 | 0.9 | 1.7 | 0.00 | 0.00 | 0.00 | 72 | 1019.9 |
| 20260504024511 | 52 | 104 | 0.0 | 1.7 | 0.00 | 0.00 | 0.00 | 72 | 1019.8 |
| 20260504024012 | 52 | 98 | 0.0 | 1.7 | 0.00 | 0.00 | 0.00 | 73 | 1019.8 |
| 20260504023510 | 53 | 103 | 0.0 | 1.7 | 0.00 | 0.00 | 0.00 | 73 | 1019.8 |
| 20260504023010 | 53 | 96 | 0.0 | 2.6 | 0.00 | 0.00 | 0.00 | 72 | 1019.9 |
| 20260504022512 | 53 | 151 | 0.0 | 2.6 | 0.00 | 0.00 | 0.00 | 72 | 1019.9 |
| 20260504022009 | 53 | 143 | 0.9 | 2.6 | 0.00 | 0.00 | 0.00 | 72 | 1019.9 |
| 20260504021511 | 53 | 110 | 0.0 | 1.7 | 0.00 | 0.00 | 0.00 | 72 | 1019.9 |
| 20260504021009 | 54 | 96 | 0.0 | 2.6 | 0.00 | 0.00 | 0.00 | 71 | 1019.9 |
| 20260504020508 | 54 | 100 | 0.9 | 2.6 | 0.00 | 0.00 | 0.00 | 71 | 1019.9 |
| 20260504020015 | 55 | 122 | 1.7 | 5.2 | 0.00 | 0.00 | 0.00 | 70 | 1019.9 |
| 20260504015508 | 56 | 165 | 0.9 | 5.2 | 0.00 | 0.00 | 0.00 | 69 | 1019.8 |
| 20260504015007 | 56 | 134 | 1.7 | 4.3 | 0.00 | 0.00 | 0.00 | 71 | 1019.8 |
| 20260504014507 | 56 | 210 | 0.9 | 5.2 | 0.00 | 0.00 | 0.00 | 68 | 1019.7 |
| 20260504014006 | 57 | 195 | 1.7 | 5.2 | 0.00 | 0.00 | 0.00 | 65 | 1019.7 |
| 20260504013506 | 59 | 231 | 1.7 | 4.3 | 0.00 | 0.00 | 0.00 | 66 | 1019.6 |
| 20260504013010 | 59 | 224 | 2.6 | 4.3 | 0.00 | 0.00 | 0.00 | 67 | 1019.7 |
| 20260504012511 | 59 | 231 | 2.6 | 4.3 | 0.00 | 0.00 | 0.00 | 65 | 1019.6 |
| 20260504012006 | 59 | 239 | 2.6 | 5.2 | 0.00 | 0.00 | 0.00 | 63 | 1019.5 |